Flag for U.S.A. Weather past 2 weeks in Beaumont, Texas, U.S.A.

Now
66 °F

Thunderstorms. Mostly cloudy.


Feels Like: 66 °F
Forecast: 75 / 86 °F
Wind: 10 mph from Southeast

Location: Jefferson County Airport

Current Time: May 26, 2015 at 1:10:36 AM

Latest Report: May 26, 2015 at 1:00 AM


Visibility: 7 mi

Pressure: 30.08 "Hg

Humidity: 96%

Dew point: 65 °F

Location of BeaumontLocation

Historic Weather in Beaumont — Graph

°F

Beaumont temperature yesterday

Maximum temperature yesterday: 87 °F (at 12:00 PM)
Minimum temperature yesterday: 66 °F (at 11:53 PM)
Average temperature yesterday: 78 °F

Past Weeks' High & Low Weather Summary

 TemperatureHumidityPressure
High89 °F (May 20, 1:53 PM)100% (May 14, 6:53 AM)30.16 "Hg (May 14, 6:53 AM)
Low63 °F (May 22, 6:53 AM)55% (May 20, 1:53 PM)29.87 "Hg (May 25, 4:53 PM)
Average78 °F83%30.03 "Hg
* Reported May 10 11:53 PM — May 25 11:53 PM, Beaumont, Weather by CustomWeather, © 2015

Note: Actual official high and low records may vary slightly from our data, if they occured in-between our weather recording intervals... More about our weather records

Advertising

Beaumont weather history for previous 24 hours

 ConditionsComfort  
Time TempWeatherWind HumidityBarometerVisibility
11:53 PM
Mon, May 25
66 °FStrong thunderstorms. Fog.12 mph96%30.07 "Hg2 mi
11:02 PM67 °FStrong thunderstorms. Fog.22 mph90%30.04 "Hg3 mi
9:53 PM81 °FMostly cloudy.9 mph88%29.95 "Hg9 mi
8:53 PM81 °FMostly cloudy.15 mph85%29.91 "Hg9 mi
7:53 PM82 °FMostly cloudy.14 mph82%29.91 "Hg8 mi
6:53 PM82 °FBroken clouds.15 mph82%29.88 "Hg9 mi
5:53 PM83 °FBroken clouds.18 mph77%29.87 "Hg10 mi
4:53 PM86 °FPartly sunny.16 mph70%29.87 "Hg10 mi
3:53 PM86 °FBroken clouds.20 mph70%29.90 "Hg10 mi
2:53 PM86 °FBroken clouds.16 mph72%29.93 "Hg10 mi
1:53 PM86 °FBroken clouds.18 mph72%29.96 "Hg10 mi
12:53 PM84 °FPartly sunny.16 mph74%29.99 "Hg10 mi
12:00 PM87 °FPassing clouds.15 mph67%29.99 "Hg10 mi
10:53 AM85 °FPartly sunny.17 mph72%29.99 "Hg10 mi
9:53 AM82 °FPartly sunny.14 mph77%30.00 "Hg10 mi
8:53 AM81 °FPassing clouds.13 mph82%29.99 "Hg10 mi
7:53 AM78 °FSunny.9 mph90%29.98 "Hg10 mi
6:53 AM71 °FClear.No wind100%29.97 "Hg10 mi
5:53 AM69 °FClear.5 mph96%29.96 "Hg10 mi
4:53 AM69 °FClear.5 mph96%29.95 "Hg9 mi
3:53 AM69 °FFog.3 mph100%29.94 "Hg6 mi
2:53 AM71 °FClear.N/A96%29.95 "Hg10 mi
1:53 AM72 °FClear.3 mph93%29.95 "Hg10 mi
Weather by CustomWeather, © 2015

See weather overviewHow to use our weather pages